Location: Carrer del Canonge
(41.4901°N, 2.2931°E)
Time: 04:45:01
(UTC+00:00)

Cosmos 1833 Rocket - Pass Details

Date: 18 September 2020
Orbit: 831 x 841 km, 71.0° (Epoch: 25 October)

Event Time Altitude Azimuth Distance (km) Brightness Sun altitude
Rises 20:00:58 0° 348° (NNW) 3,405 6.4 -23.8°
Reaches altitude 10° 20:04:18 10° 8° (N) 2,467 5.3 -24.3°
Enters shadow 20:07:25 17° 41° (NE) 1,998 4.5 -24.8°
